Home   Weather   Pago Pago   Past weeks

Flag for American Samoa Past Weather in Pago Pago, American Samoa — Yesterday and Last 2 Weeks

Now
88 °F

Broken clouds.


Feels Like: 106 °F
Forecast: 81 / 88 °F
Wind: 2 mph from North

Location: Pago Pago / Int. Airp.

Current Time: Dec 7, 2016 at 3:33:18 pm

Latest Report: Dec 7, 2016 at 2:50 pm


Visibility: 12 mi

Pressure: 29.75 "Hg

Humidity: 81%

Dew Point: 81 °F

Location of Pago PagoLocation

Past Weather in Pago Pago — Graph

°F

Pago Pago Temperature Yesterday

Maximum temperature yesterday: 90 °F (at 12:50 pm)
Minimum temperature yesterday: 79 °F (at 2:50 am)
Average temperature yesterday: 84 °F

High & Low Weather Summary for the Past Weeks

 TemperatureHumidityPressure
High92 °F (Dec 4, 1:51 pm)100% (Nov 25, 10:52 pm)29.86 "Hg (Nov 25, 10:52 pm)
Low75 °F (Nov 27, 4:55 am)65% (Nov 29, 12:50 pm)29.72 "Hg (Dec 5, 2:53 pm)
Average83 °F90%29.78 "Hg
* Reported Nov 22 1:51 pm — Dec 7 1:50 pm, Pago Pago, Weather by CustomWeather, © 2016

Note: Actual official high and low records may vary slightly from our data, if they occured in-between our weather recording intervals... More about our weather records

Advertising

Pago Pago Weather History for the Previous 24 Hours

Scroll right to see more
 ConditionsComfort  
Time TempWeatherWind HumidityBarometerVisibility
1:50 pm
Wed, Dec 7
88 °FBroken clouds.8 mph78%29.75 "Hg12 mi
12:50 pm90 °FPartly sunny.8 mph77%29.77 "Hg12 mi
11:50 am89 °FPartly sunny.6 mph77%29.79 "Hg12 mi
10:50 am89 °FPartly sunny.8 mph79%29.80 "Hg12 mi
9:50 am88 °FPartly sunny.8 mph79%29.82 "Hg12 mi
8:50 am89 °FPartly sunny.10 mph80%29.82 "Hg12 mi
7:50 am86 °FPartly sunny.5 mph82%29.82 "Hg12 mi
6:50 am82 °FScattered clouds.No wind93%29.82 "Hg12 mi
5:50 am80 °FPassing clouds.No wind95%29.80 "Hg12 mi
4:50 am80 °FClear.No wind96%29.78 "Hg10 mi
2:53 am82 °FPassing clouds.No wind92%29.77 "Hg10 mi
1:55 am82 °FPartly cloudy.6 mph93%29.78 "Hg10 mi
12:50 am82 °FPartly cloudy.No wind94%29.80 "Hg10 mi
11:50 pm
Tue, Dec 6
83 °FPassing clouds.5 mph91%29.81 "Hg10 mi
10:52 pm83 °FPassing clouds.3 mph92%29.83 "Hg10 mi
9:50 pm84 °FPassing clouds.3 mph90%29.81 "Hg11 mi
8:51 pm83 °FPartly cloudy.3 mph90%29.81 "Hg11 mi
7:50 pm84 °FPartly cloudy.5 mph88%29.79 "Hg11 mi
6:51 pm85 °FPartly cloudy.6 mph88%29.78 "Hg11 mi
5:53 pm86 °FBroken clouds.7 mph87%29.76 "Hg12 mi
4:51 pm87 °FPartly sunny.7 mph85%29.74 "Hg12 mi
3:50 pm89 °FBroken clouds.10 mph80%29.73 "Hg12 mi
Weather by CustomWeather, © 2016

See weather overviewHow to use our weather pages